Location: Newark
(48.7875°N, 2.3928°E)
Time: 23:39:27
(UTC+00:00)

N. Korean satellite - Pass Details

Date: 30 October 2019
Orbit: 456 x 506 km, 97.2° (Epoch: 20 November)

Event Time Altitude Azimuth Distance (km) Brightness Sun altitude
Rises 05:13:12 0° 21° (NNE) 2,594 10.5 -13.7°
Reaches altitude 10° 05:15:27 10° 32° (NNE) 1,712 9.7 -13.3°
Maximum altitude 05:18:45 30° 96° (E) 915 8.8 -12.8°
Drops below altitude 10° 05:22:04 10° 159° (SSE) 1,713 9.7 -12.2°
Sets 05:24:19 0° 170° (S) 2,595 10.5 -11.9°
